Weather History for KERY - March, 2013

Change the Weather History Date:

Tuesday, March 26, 2013

  Actual Average Record
Temperature  
Mean Temperature 34 °F -  
Max Temperature 39 °F 38 °F 67 °F (1945)
Min Temperature 30 °F 20 °F -20 °F (1923)
Degree Days  
Heating Degree Days 30    
Moisture  
Dew Point 26 °F    
Average Humidity 74    
Maximum Humidity 93    
Minimum Humidity 45    
Precipitation  
Precipitation 0.00 in - - ()
Sea Level Pressure  
Sea Level Pressure 30.07 in    
Wind  
Wind Speed 7 mph (NNW)    
Max Wind Speed 16 mph    
Max Gust Speed 26 mph    
Visibility 10 miles    
Events Snow    
Averages and records for this station are not official NWS values.
T = Trace of Precipitation, MM = Missing Value Source: NWS Daily Summary

Daily Weather History Graph

Daily Weather History Graph

Search for Another Location

Airport or City:

Trip Planner

Search our weather history database for the weather conditions in past years. The results will help you decide how hot, cold, wet, or windy it might be!

Date:

Astronomy

Mar. 26, 2013 Rise Set
Actual Time 7:32 AM EDT 8:02 PM EDT
Civil Twilight 7:02 AM EDT 8:33 PM EDT
Nautical Twilight 6:26 AM EDT 9:08 PM EDT
Astronomical Twilight 5:49 AM EDT 9:46 PM EDT
Moon 7:39 PM EDT (3/26) 6:49 AM EDT (3/26)
Length of Visible Light 13h 30m
Length of Day
12h 30m
Waxing Gibbous, 99% of the Moon is Illuminated
Mar 26
Waxing Gibbous
Mar 27
Full
Apr 3
Last Quarter
Apr 10
New
Apr 18
First Quarter

Hourly Weather History & Observations

Time (EDT) Temp. Windchill Dew Point Humidity Pressure Visibility Wind Dir Wind Speed Gust Speed Precip Events Conditions
12:15 AM 33.8 °F 29.6 °F 28.4 °F 81% 30.01 in 10.0 mi NNW 4.6 mph - N/A   Overcast
12:34 AM 33.8 °F 28.6 °F 28.4 °F 81% 30.01 in 10.0 mi NW 5.8 mph - N/A   Overcast
12:55 AM 33.8 °F 29.6 °F 28.4 °F 81% 30.02 in 10.0 mi NNW 4.6 mph - N/A   Overcast
1:14 AM 33.8 °F 29.6 °F 28.4 °F 81% 30.02 in 10.0 mi NNW 4.6 mph - N/A   Overcast
1:35 AM 33.8 °F 29.6 °F 28.4 °F 81% 30.02 in 10.0 mi NNW 4.6 mph - N/A   Overcast
1:55 AM 33.8 °F 29.6 °F 28.4 °F 81% 30.02 in 10.0 mi NNW 4.6 mph - N/A   Overcast
2:14 AM 33.8 °F 29.6 °F 28.4 °F 81% 30.03 in 10.0 mi NNW 4.6 mph - N/A   Overcast
2:35 AM 33.8 °F 29.6 °F 28.4 °F 81% 30.03 in 10.0 mi NNW 4.6 mph - N/A   Overcast
2:55 AM 33.8 °F 30.8 °F 28.4 °F 81% 30.03 in 10.0 mi NNW 3.5 mph - N/A   Overcast
3:14 AM 33.8 °F 30.8 °F 28.4 °F 81% 30.03 in 10.0 mi NNW 3.5 mph - N/A   Overcast
3:35 AM 32.0 °F 28.7 °F 28.4 °F 87% 30.03 in 10.0 mi NNW 3.5 mph - N/A   Overcast
3:54 AM 32.0 °F 27.5 °F 28.4 °F 87% 30.03 in 10.0 mi NNW 4.6 mph - N/A   Overcast
4:14 AM 32.0 °F 26.4 °F 28.4 °F 87% 30.02 in 10.0 mi NNW 5.8 mph - N/A   Overcast
4:34 AM 32.0 °F 28.7 °F 28.4 °F 87% 30.02 in 10.0 mi NNW 3.5 mph - N/A   Overcast
4:54 AM 32.0 °F 27.5 °F 28.4 °F 87% 30.03 in 10.0 mi NNW 4.6 mph - N/A   Overcast
5:15 AM 32.0 °F 28.7 °F 28.4 °F 87% 30.03 in 10.0 mi NNW 3.5 mph - N/A   Overcast
5:34 AM 32.0 °F 28.7 °F 28.4 °F 87% 30.03 in 10.0 mi NNW 3.5 mph - N/A   Overcast
5:54 AM 30.2 °F 24.3 °F 28.4 °F 93% 30.03 in 10.0 mi NNW 5.8 mph - N/A   Overcast
6:15 AM 30.2 °F 22.6 °F 28.4 °F 93% 30.03 in 5.0 mi NNW 8.1 mph - N/A Snow Light Snow
6:34 AM 30.2 °F 26.7 °F 28.4 °F 93% 30.04 in 10.0 mi NNW 3.5 mph - N/A   Overcast
6:55 AM 30.2 °F 25.4 °F 28.4 °F 93% 30.04 in 10.0 mi NNW 4.6 mph - N/A   Overcast
7:14 AM 30.2 °F 24.3 °F 28.4 °F 93% 30.04 in 10.0 mi NW 5.8 mph - N/A   Overcast
7:34 AM 32.0 °F 26.4 °F 28.4 °F 87% 30.05 in 10.0 mi NNW 5.8 mph - N/A   Overcast
7:55 AM 32.0 °F 26.4 °F 28.4 °F 87% 30.05 in 10.0 mi NNW 5.8 mph - N/A   Overcast
8:14 AM 32.0 °F 26.4 °F 28.4 °F 87% 30.06 in 10.0 mi NNW 5.8 mph - N/A   Overcast
8:35 AM 32.0 °F 26.4 °F 28.4 °F 87% 30.07 in 10.0 mi NNW 5.8 mph - N/A   Overcast
8:54 AM 33.8 °F 27.0 °F 28.4 °F 81% 30.07 in 10.0 mi NNW 8.1 mph - N/A   Overcast
9:15 AM 33.8 °F 26.4 °F 28.4 °F 81% 30.08 in 10.0 mi NNW 9.2 mph - N/A   Overcast
9:35 AM 33.8 °F 27.0 °F 28.4 °F 81% 30.08 in 10.0 mi North 8.1 mph - N/A   Overcast
9:54 AM 35.6 °F 28.0 °F 28.4 °F 75% 30.08 in 10.0 mi NNW 10.4 mph - N/A   Overcast
10:15 AM 35.6 °F 27.5 °F 26.6 °F 70% 30.09 in 10.0 mi North 11.5 mph 16.1 mph N/A   Overcast
10:35 AM 35.6 °F 28.0 °F 26.6 °F 70% 30.09 in 10.0 mi North 10.4 mph 17.3 mph N/A   Overcast
10:54 AM 35.6 °F 28.0 °F 26.6 °F 70% 30.10 in 10.0 mi North 10.4 mph - N/A   Overcast
11:15 AM 35.6 °F 29.2 °F 26.6 °F 70% 30.10 in 10.0 mi North 8.1 mph - N/A   Mostly Cloudy
11:34 AM 37.4 °F 31.4 °F 24.8 °F 60% 30.10 in 10.0 mi NNW 8.1 mph - N/A   Scattered Clouds
11:54 AM 37.4 °F 30.8 °F 24.8 °F 60% 30.10 in 10.0 mi NW 9.2 mph - N/A   Scattered Clouds
12:15 PM 37.4 °F 30.3 °F 24.8 °F 60% 30.10 in 10.0 mi NNW 10.4 mph 19.6 mph N/A   Scattered Clouds
12:34 PM 37.4 °F 30.8 °F 24.8 °F 60% 30.10 in 10.0 mi NNW 9.2 mph - N/A   Scattered Clouds
12:54 PM 37.4 °F 28.2 °F 24.8 °F 60% 30.10 in 10.0 mi NW 16.1 mph - N/A   Scattered Clouds
1:15 PM 37.4 °F 28.2 °F 24.8 °F 60% 30.10 in 10.0 mi NNW 16.1 mph 20.7 mph N/A   Scattered Clouds
1:34 PM 39.2 °F 32.0 °F 23.0 °F 52% 30.09 in 10.0 mi NNW 11.5 mph 18.4 mph N/A   Scattered Clouds
1:55 PM 39.2 °F 31.2 °F 21.2 °F 49% 30.09 in 10.0 mi NNW 13.8 mph 21.9 mph N/A   Scattered Clouds
2:15 PM 39.2 °F 30.8 °F 19.4 °F 45% 30.09 in 10.0 mi NNW 15.0 mph 25.3 mph N/A   Scattered Clouds
2:34 PM 39.2 °F 31.2 °F 21.2 °F 49% 30.09 in 10.0 mi NW 13.8 mph 23.0 mph N/A   Scattered Clouds
2:55 PM 39.2 °F 30.5 °F 21.2 °F 49% 30.09 in 10.0 mi North 16.1 mph 26.5 mph N/A   Scattered Clouds
3:14 PM 39.2 °F 33.0 °F 21.2 °F 49% 30.08 in 10.0 mi NNW 9.2 mph 20.7 mph N/A   Scattered Clouds
3:34 PM 39.2 °F 30.8 °F 19.4 °F 45% 30.08 in 10.0 mi NW 15.0 mph 25.3 mph N/A   Scattered Clouds
3:55 PM 39.2 °F 30.5 °F 21.2 °F 49% 30.08 in 10.0 mi North 16.1 mph 24.2 mph N/A   Scattered Clouds
4:14 PM 39.2 °F 31.2 °F 21.2 °F 49% 30.08 in 10.0 mi NW 13.8 mph 20.7 mph N/A   Scattered Clouds
4:34 PM 37.4 °F 28.9 °F 21.2 °F 52% 30.08 in 10.0 mi NW 13.8 mph 25.3 mph N/A   Scattered Clouds
4:55 PM 37.4 °F 28.9 °F 24.8 °F 60% 30.08 in 10.0 mi North 13.8 mph 21.9 mph N/A   Scattered Clouds
5:14 PM 37.4 °F 28.9 °F 24.8 °F 60% 30.08 in 10.0 mi North 13.8 mph 20.7 mph N/A   Mostly Cloudy
5:35 PM 37.4 °F 29.3 °F 24.8 °F 60% 30.09 in 10.0 mi NW 12.7 mph 21.9 mph N/A   Mostly Cloudy
5:55 PM 37.4 °F 29.3 °F 24.8 °F 60% 30.09 in 10.0 mi NW 12.7 mph 24.2 mph N/A   Scattered Clouds
6:14 PM 35.6 °F 28.0 °F 26.6 °F 70% 30.09 in 10.0 mi NW 10.4 mph 20.7 mph N/A   Clear
6:35 PM 35.6 °F 27.1 °F 24.8 °F 65% 30.10 in 10.0 mi NNW 12.7 mph 23.0 mph N/A   Clear
6:54 PM 35.6 °F 27.1 °F 26.6 °F 70% 30.10 in 10.0 mi NW 12.7 mph 20.7 mph N/A   Clear
7:14 PM 35.6 °F 29.9 °F 26.6 °F 70% 30.11 in 10.0 mi NNW 6.9 mph 19.6 mph N/A   Clear
7:35 PM 35.6 °F 28.0 °F 26.6 °F 70% 30.11 in 10.0 mi NW 10.4 mph 17.3 mph N/A   Clear
7:54 PM 33.8 °F 27.0 °F 26.6 °F 75% 30.11 in 10.0 mi NW 8.1 mph 11.5 mph N/A   Clear
8:15 PM 33.8 °F 27.7 °F 26.6 °F 75% 30.11 in 10.0 mi NW 6.9 mph 10.4 mph N/A   Clear
8:35 PM 33.8 °F 25.3 °F 26.6 °F 75% 30.11 in 10.0 mi WNW 11.5 mph 17.3 mph N/A   Clear
8:54 PM 32.0 °F 23.6 °F 26.6 °F 80% 30.11 in 10.0 mi WNW 10.4 mph 16.1 mph N/A   Clear
9:15 PM 32.0 °F 23.6 °F 26.6 °F 80% 30.12 in 10.0 mi NW 10.4 mph 16.1 mph N/A   Clear
9:35 PM 32.0 °F 22.5 °F 26.6 °F 80% 30.12 in 10.0 mi WNW 12.7 mph 18.4 mph N/A   Clear
9:54 PM 32.0 °F 23.6 °F 26.6 °F 80% 30.12 in 10.0 mi WNW 10.4 mph - N/A   Clear
10:15 PM 32.0 °F 23.0 °F 26.6 °F 80% 30.12 in 10.0 mi WNW 11.5 mph 16.1 mph N/A   Scattered Clouds
10:34 PM 32.0 °F 24.2 °F 26.6 °F 80% 30.12 in 10.0 mi NW 9.2 mph 17.3 mph N/A   Scattered Clouds
10:54 PM 32.0 °F 23.0 °F 26.6 °F 80% 30.12 in 10.0 mi WNW 11.5 mph 18.4 mph N/A   Clear
11:15 PM 32.0 °F 23.6 °F 26.6 °F 80% 30.12 in 10.0 mi WNW 10.4 mph - N/A   Clear
11:34 PM 30.2 °F 22.6 °F 26.6 °F 86% 30.11 in 10.0 mi WNW 8.1 mph - N/A   Clear
11:54 PM 30.2 °F 22.6 °F 26.6 °F 86% 30.11 in 10.0 mi WNW 8.1 mph - N/A   Clear